THORAD AGENA D DEB, 4613

Orbit data source: Space-Track

THORAD AGENA D DEB, 4613 is space debris in SSO originally from a launch on Wed, 08 Apr 1970 UTC launched from the Air Force Western Test Range (AFWTR). Debris objects in space refer to the collection of defunct objects orbiting the Earth. Examples of debris include non-operational satellites, rocket bodies, and fragments generated from explosions, collisions, or faulty payload assembly.

Loading next visibility...
Identifier
4613, 1970-025R
Orbit
SSO
Country
Flag of USUS
Related business
Manufacturer
Unknown
Mission
Spacecraft
Bus & Motor
Unknown
Mass
Unknown
Launch date (UTC)
1970-04-08 (56 years ago)
Launch vehicle
Unknown
Launch site
Air Force Western Test Range (AFWTR)
Object type
Payload
Rocket body
Debris
Shape & HBR
Unknown shape, 0.1 m
Radar Cross Section
Medium (>0.1 m² and <1 m²)

Expand to show TLE details & history
Last TLE update: 20 hours ago

TLE from 20 hours ago
0 THORAD AGENA D DEB
1 04613U 70025R   25292.03149372  .00004485  00000-0  18663-2 0  9994
2 04613  98.6093 326.6624 0089457 151.7229 208.8849 14.24671794826752
Epoch: 2025-10-19T00:45Z
TLE epoch observation values (Epoch: 2025-10-19T00:45:21.057Z)
Latitude
0.00001°
Longitude
-72.42933°
Altitude
868.965 km
Speed
7.389 km/s
True Right ascension
21h 46m 38s
True Declination
0° 00' 00"
Sunlit
Object was in full shadow at epoch
Visualization orbit readout
Latitude
Unknown
Longitude
Unknown
Altitude
Unknown
Speed
Unknown
Apparent Right ascension
Unknown
Apparent Declination
Unknown
Sunlit
N/A
Visualization observer readout
Local Sidereal Time
15:33:41
Azimuth
Unknown
Elevation
Unknown
Doppler factor
Unknown
Orbital elements
Apogee altitude
871.017 km
Perigee altitude
742.47 km
Semi-major axis
7,184.881 km
Eccentricity
0.00895
Inclination
98.6093°
RAAN
326.6624°
Arg. of periapsis
151.7229°
True anomaly
208.39453°
Mean anomaly
208.8849°
Eccentric anomaly
208.63924°
Mean motion
3.5638 °/min
Orbital period
101.02 mins
BSTAR
0.0018663
Loading maneuver chart data...
Computing Atmospheric mass density...

Documentation

Showing up to 5 results
|